Detroit, MI

12:17 AM EST on February 11, 2016 (GMT -0500)
Detroit City

Weather History for KDET - January, 2013

Change the Weather History Date:

Saturday, January 19, 2013

  Actual Average Record
Temperature  
Mean Temperature 41 °F -  
Max Temperature 46 °F 32 °F 56 °F (1949)
Min Temperature 36 °F 19 °F 1 °F (1997)
Degree Days  
Heating Degree Days 24    
Moisture  
Dew Point 28 °F    
Average Humidity 58    
Maximum Humidity 70    
Minimum Humidity 51    
Precipitation  
Precipitation 0.00 in - - ()
Sea Level Pressure  
Sea Level Pressure 29.83 in    
Wind  
Wind Speed 18 mph (SW)    
Max Wind Speed 22 mph    
Max Gust Speed 36 mph    
Visibility 10 miles    
Events      
Averages and records for this station are not official NWS values.
T = Trace of Precipitation, MM = Missing Value Source: NWS Daily Summary

Daily Weather History Graph

Daily Weather History Graph

Search for Another Location

Airport or City:

Trip Planner

Search our weather history database for the weather conditions in past years. The results will help you decide how hot, cold, wet, or windy it might be!

Date:

Astronomy

Jan. 19, 2013 Rise Set
Actual Time 7:56 AM EST 5:29 PM EST
Civil Twilight 7:25 AM EST 6:00 PM EST
Nautical Twilight 6:51 AM EST 6:34 PM EST
Astronomical Twilight 6:17 AM EST 7:08 PM EST
Moon 11:56 AM EST (1/19) 1:27 AM EST (1/19)
Length of Visible Light 10h 34m
Length of Day
9h 33m
First Quarter, 57% of the Moon is Illuminated
Jan 19
First Quarter
Jan 26
Full
Feb 3
Last Quarter
Feb 10
New
Feb 17
First Quarter

Hourly Weather History & Observations

Time (EST) Temp. Windchill Dew Point Humidity Pressure Visibility Wind Dir Wind Speed Gust Speed Precip Events Conditions
12:53 AM 36.0 °F 26.0 °F 21.9 °F 57% 29.98 in 10.0 mi SW 17.3 mph 26.5 mph N/A   Clear
1:53 AM 37.0 °F 26.4 °F 23.0 °F 57% 29.97 in 10.0 mi SW 20.7 mph 31.1 mph N/A   Clear
2:53 AM 37.0 °F 27.0 °F 23.0 °F 57% 29.96 in 10.0 mi SW 18.4 mph 29.9 mph N/A   Clear
3:53 AM 37.0 °F 27.4 °F 23.0 °F 57% 29.96 in 10.0 mi SW 17.3 mph 25.3 mph N/A   Clear
4:53 AM 37.0 °F 27.7 °F 24.1 °F 59% 29.95 in 10.0 mi SW 16.1 mph 25.3 mph N/A   Clear
5:53 AM 37.0 °F 27.0 °F 24.1 °F 59% 29.95 in 10.0 mi SW 18.4 mph 27.6 mph N/A   Clear
6:53 AM 37.0 °F 28.1 °F 25.0 °F 62% 29.94 in 10.0 mi SW 15.0 mph 24.2 mph N/A   Clear
7:53 AM 37.0 °F 29.3 °F 25.0 °F 62% 29.95 in 10.0 mi SW 11.5 mph 21.9 mph N/A   Clear
8:53 AM 37.9 °F 28.9 °F 26.1 °F 62% 29.96 in 10.0 mi SW 16.1 mph 24.2 mph N/A   Clear
9:53 AM 39.0 °F 30.6 °F 26.1 °F 60% 29.96 in 10.0 mi SW 15.0 mph 25.3 mph N/A   Clear
10:53 AM 42.1 °F 34.5 °F 27.0 °F 55% 29.95 in 10.0 mi SW 15.0 mph 28.8 mph N/A   Clear
11:53 AM 43.0 °F 34.8 °F 28.0 °F 56% 29.91 in 10.0 mi SW 18.4 mph 25.3 mph N/A   Clear
12:53 PM 44.1 °F 37.7 °F 28.0 °F 53% 29.86 in 10.0 mi WSW 12.7 mph 28.8 mph N/A   Clear
1:53 PM 46.0 °F 38.3 °F 28.9 °F 51% 29.82 in 10.0 mi SW 20.7 mph 29.9 mph N/A   Clear
2:53 PM 46.0 °F 38.5 °F 28.9 °F 51% 29.79 in 10.0 mi SW 19.6 mph 27.6 mph N/A   Clear
3:53 PM 46.9 °F - 30.0 °F 52% 29.75 in 10.0 mi SW 21.9 mph 31.1 mph N/A   Clear
4:53 PM 46.0 °F 38.5 °F 30.9 °F 56% 29.75 in 10.0 mi SW 19.6 mph 27.6 mph N/A   Clear
5:53 PM 46.0 °F 39.3 °F 30.9 °F 56% 29.75 in 10.0 mi SW 16.1 mph 27.6 mph N/A   Overcast
6:53 PM 46.9 °F - 32.0 °F 56% 29.70 in 10.0 mi SW 21.9 mph 35.7 mph N/A   Overcast
7:53 PM 46.9 °F - 32.0 °F 56% 29.69 in 10.0 mi SW 21.9 mph 33.4 mph N/A   Mostly Cloudy
8:53 PM 46.0 °F 38.0 °F 32.0 °F 58% 29.65 in 10.0 mi SW 21.9 mph 34.5 mph N/A   Partly Cloudy
9:53 PM 45.0 °F 36.9 °F 33.1 °F 63% 29.63 in 10.0 mi SW 20.7 mph 33.4 mph N/A   Clear
10:53 PM 44.1 °F 36.2 °F 33.1 °F 65% 29.61 in 10.0 mi WSW 18.4 mph 28.8 mph N/A   Clear
11:53 PM 42.1 °F 34.2 °F 33.1 °F 70% 29.58 in 10.0 mi WSW 16.1 mph - N/A   Partly Cloudy